Location: Borea
(45.6167°N, 23.0167°E)
Time: 07:23:57
(UTC+00:00)

Cosmos 676 Rocket - Visible Passes

Search period start: 30 September 2023 00:00
Search period end: 10 October 2023 00:00
Orbit: 753 x 782 km, 74.0° (Epoch: 29 September)

Date Brightness Start Highest point End Pass type
(mag) Time Alt. Az. Time Alt. Az. Time Alt. Az.
30 Sep 6.8 03:50:13 10° NNE 03:52:21 12° NE 03:54:30 10° ENE visible
03 Oct 6.7 03:39:47 10° N 03:43:22 18° NE 03:46:57 10° E visible
04 Oct 6.9 03:03:46 10° NNE 03:05:46 12° NE 03:07:47 10° ENE visible
06 Oct 6.3 03:29:50 10° N 03:34:17 26° NE 03:38:43 10° ESE visible
07 Oct 6.7 02:53:15 10° N 02:56:47 18° NE 03:00:19 10° E visible
07 Oct6.717:43:42NNE17:43:42NNE17:31:13SSEvisible
07 Oct 6.7 19:23:54 10° N 19:23:54 10° N 19:11:40 - SW visible
08 Oct 7.0 02:17:18 10° NNE 02:19:10 12° NE 02:21:03 10° ENE visible
08 Oct 4.6 03:57:05 10° NNW 04:02:21 64° ENE 04:07:37 10° SSE visible
08 Oct 5.8 16:57:19 10° SE 17:06:11 - NE 16:57:59 12° ESE visible
08 Oct 5.5 18:36:26 10° SSW 18:46:20 13° NNE 18:46:50 10° NNE visible
08 Oct 6.9 20:26:28 11° NNW 20:26:28 11° NNW 20:27:00 10° NNW visible
09 Oct 5.5 03:20:06 10° N 03:25:05 40° ENE 03:30:03 10° SE visible
09 Oct 3.8 17:59:20 10° S 18:04:28 69° ESE 18:09:40 10° NNE visible
09 Oct 6.4 19:43:22 10° W 19:47:04 19° NW 19:50:49 10° N visible
